Погода в Улемце

Россия / Калужская область     53°32′34″N   34°38′45″E
темп.,
°C
ветер,
м/с
пор.,
м/с
влажн.,
%
обл.,
%
осадки,
мм/ч
давл.,
гПа
погр.,
м
16 июня, ср
ср1600:00+15с23952 0.0 101253
03:00+14ссз23954 0.0 101242
06:00+15ссз26940 0.0 1013150
09:00+20с34715 0.0 1013481
12:00+23с4555100 0.0 10141525
15:00+24ссв445318 0.0 10141806
18:00+21ссв4873100 0.1 1015312
21:00+19ссв4106957 0.1 1017363
17 июня, чт
чт1700:00+14св37793 0.0 1019114
03:00+12ссв37845 0.0 1020115
06:00+13св38835 0.0 1022185
09:00+19всв47580 0.0 1023527
12:00+22всв45435 0.0 10231503
15:00+24всв44440 0.0 10231759
18:00+22св35600 0.0 1023694
21:00+16в33820 0.0 102537
18 июня, пт
пт1800:00+13в22840 0.0 102627
03:00+12всв23884 0.0 102735
06:00+13всв24840 0.0 1028113
09:00+19в36620 0.0 1028492
12:00+23вюв45505 0.0 10271246
15:00+24в34500 0.0 10271503
18:00+23вюв34625 0.0 1027718
21:00+17юв33852 0.0 102742
19 июня, сб
сб1900:00+15юв22924 0.0 102825
03:00+13вюв22936 0.0 102921
06:00+14вюв249053 0.0 102998
09:00+20вюв346841 0.0 1029544
12:00+23юв455085 0.0 10281327
15:00+24юв44515 0.0 10261454
18:00+23юв34645 0.0 1026806
21:00+18юв22840 0.0 102619
20 июня, вс
вс2000:00+16юв22935 0.0 102730
03:00+14юв22945 0.0 102730
06:00+15юв249092 0.0 1027120
09:00+20юв346862 0.0 1026486
12:00+24юв4452100 0.0 10251192
15:00+25юв345199 0.0 10241394
18:00+24ююв346337 0.0 1023664
21:00+19юв228320 0.0 102315